Погода в Герге

Россия / Республика Дагестан     42°20′54″N   47°57′42″E
темп.,
°C
ветер,
м/с
пор.,
м/с
влажн.,
%
обл.,
%
осадки,
мм/ч
давл.,
гПа
погр.,
м
17 октября, вс
вс1700:00+16ссв119577 0.0 101380
03:00+16ссз249089 0.0 1012220
06:00+15сз249260 0.0 1013170
09:00+18ссз357638 0.0 1014647
12:00+20с446512 0.0 1012842
15:00+20ссв326714 0.0 1011524
18:00+17вюв228348 0.0 1012124
21:00+16св01875 0.0 101321
18 октября, пн
пн1800:00+15зсз118922 0.0 101329
03:00+15сз118858 0.0 101312
06:00+15ссз118840 0.0 101413
09:00+17ссв118398 0.1 1015242
12:00+17в118270 0.2 1014324
15:00+18вюв1176100 0.6 1014340
18:00+17ююз1181100 1.3 101541
21:00+17ссз2281100 2.4 101646
19 октября, вт
вт1900:00+15ссз129099 0.9 1017117
03:00+15с1291100 1.3 1017118
06:00+15зюз1188100 0.4 101747
09:00+16ююв117796 0.6 1018103
12:00+16св1175100 0.1 1017195
15:00+16всв0177100 0.3 101691
18:00+15ююв1177100 0.1 101720
21:00+14с4781100 0.1 1018346
20 октября, ср
ср2000:00+11ссз71381100 1.6 10211000
03:00+11ссз31272100 2.0 10221450
06:00+11ссз156497 0.0 1023478
09:00+12ссз135498 0.0 10251309
12:00+11с3255100 0.0 10251241
15:00+11зюз2257100 0.0 1025597
18:00+11юз2364100 0.0 1027191
21:00+11юз2366100 0.0 1028193
21 октября, чт
чт2100:00+11сз1164100 0.0 1028386
03:00+9с3455100 0.0 1029384
06:00+9юз015660 0.0 1030194
09:00+11юв125137 0.0 1030808
12:00+13в334999 0.0 10291360
15:00+13вюв445222 0.0 10281102
18:00+10юв23640 0.0 1029259
21:00+9ю23725 0.0 1029158